User: anonymous   Login
Location: Meanaryar
(48.4161°N, 4.7315°W)
Time: 05:18:33
(UTC+00:00)
Language:

NOSS 8 (E) - Orbit

View from above orbital plane
View from above orbital plane
View from above satellite
View from above satellite

Ground track
Ground track

The orbit data is extracted from the following two-line orbital elements,

1 18009U 87043E   20333.58241170 +.00000945 +00000-0 +92743-4 0  9996
2 18009 063.3042 060.5821 0940247 066.6291 303.0764 13.46270625069471
Epoch (UTC): 28 November 2020 13:58:40
Eccentricity: 0.0940247
inclination: 63.3042°
perigee height: 384 km
apogee height: 1788 km
right ascension of ascending node: 60.5821°
argument of perigee: 66.6291°
revolutions per day: 13.46270625
mean anomaly at epoch: 303.0764°
orbit number at epoch: 6947

The dashed part of the orbit path shows where the satellite is in the earth's shadow,  

DLR